Johnstown, PA

5:06 AM EDT on July 21, 2017 (GMT -0400)
Johnstown-Cambria County

Weather History for KJST - December, 2013

Change the Weather History Date:

Sunday, December 29, 2013

  Actual Average Record
Temperature  
Mean Temperature 39 °F 26 °F  
Max Temperature 44 °F 33 °F 69 °F (1984)
Min Temperature 34 °F 19 °F -2 °F (1894)
Degree Days  
Heating Degree Days 26 39  
Month to date heating degree days 978 1049  
Since 1 July heating degree days 2609 2506  
Cooling Degree Days 0 0  
Month to date cooling degree days 0 0  
Year to date cooling degree days 393 382  
Moisture  
Dew Point 35 °F    
Average Humidity 67    
Maximum Humidity 100    
Minimum Humidity 33    
Precipitation  
Precipitation 0.83 in 0.08 in 1.00 in (1901)
Month to date precipitation 3.14 2.42  
Year to date precipitation 37.13 33.47  
Sea Level Pressure  
Sea Level Pressure 29.73 in    
Wind  
Wind Speed 9 mph (WNW)    
Max Wind Speed 25 mph    
Max Gust Speed 40 mph    
Visibility 4 miles    
Events Fog , Rain    
T = Trace of Precipitation, MM = Missing Value Source: NWS Daily Summary

Daily Weather History Graph

Daily Weather History Graph

Search for Another Location

Airport or City:

Trip Planner

Search our weather history database for the weather conditions in past years. The results will help you decide how hot, cold, wet, or windy it might be!

Date:

Astronomy

Dec. 29, 2013 Rise Set
Actual Time 7:37 AM EST 4:57 PM EST
Civil Twilight 7:06 AM EST 5:28 PM EST
Nautical Twilight 6:32 AM EST 6:02 PM EST
Astronomical Twilight 5:59 AM EST 6:35 PM EST
Moon 4:19 AM EST (12/29) 2:34 PM EST (12/29)
Length of Visible Light 10h 21m
Length of Day
9h 19m
Waning Crescent, 11% of the Moon is Illuminated
Dec 29
Waning Crescent
Jan 1
New
Jan 7
First Quarter
Jan 15
Full
Jan 24
Last Quarter

Hourly Weather History & Observations

Time (EST) Temp. Windchill Dew Point Humidity Pressure Visibility Wind Dir Wind Speed Gust Speed Precip Events Conditions
12:54 AM 39.0 °F 34.0 °F 19.9 °F 46% 30.04 in 10.0 mi SW 6.9 mph - N/A   Clear
4:54 AM 43.0 °F 39.5 °F 16.0 °F 34% 29.96 in 10.0 mi South 5.8 mph - N/A   Overcast
5:54 AM 42.1 °F 39.2 °F 19.0 °F 40% 29.98 in 10.0 mi South 4.6 mph - 0.00 in Rain Light Rain
6:33 AM 39.9 °F - 30.9 °F 70% 29.93 in 7.0 mi Calm Calm - 0.01 in Rain Light Rain
6:54 AM 37.9 °F 35.5 °F 33.1 °F 83% 29.96 in 6.0 mi ESE 3.5 mph - 0.04 in Rain Rain
7:38 AM 37.0 °F 31.6 °F 35.1 °F 93% 29.83 in 10.0 mi East 6.9 mph - 0.05 in Rain Light Rain
7:54 AM 37.0 °F 31.6 °F 35.1 °F 93% 29.87 in 10.0 mi East 6.9 mph - 0.06 in Rain Light Rain
8:54 AM 37.0 °F 31.6 °F 36.0 °F 96% 29.87 in 3.0 mi East 6.9 mph - 0.14 in Rain Rain
9:03 AM 37.0 °F 32.4 °F 36.0 °F 96% 29.83 in 2.5 mi East 5.8 mph - 0.04 in Rain Rain
9:05 AM 37.0 °F 33.3 °F 36.0 °F 96% 29.83 in 2.5 mi East 4.6 mph - 0.04 in Rain Rain
9:10 AM 37.0 °F 32.4 °F 36.0 °F 96% 29.83 in 3.0 mi East 5.8 mph - 0.05 in Rain Rain
9:28 AM 37.0 °F 32.4 °F 37.0 °F 100% 29.81 in 4.0 mi East 5.8 mph - 0.10 in Rain Rain
9:54 AM 37.9 °F 32.1 °F 37.0 °F 97% 29.83 in 5.0 mi East 8.1 mph - 0.16 in Rain Rain
10:17 AM 37.9 °F 35.5 °F 37.0 °F 97% 29.76 in 4.0 mi East 3.5 mph - 0.03 in Rain Rain
10:29 AM 37.9 °F 33.5 °F 37.0 °F 97% 29.76 in 4.0 mi ESE 5.8 mph - 0.05 in Rain Rain
10:35 AM 37.9 °F 34.4 °F 37.0 °F 97% 29.75 in 2.5 mi East 4.6 mph - 0.07 in Rain Rain
10:44 AM 37.9 °F 35.5 °F 37.9 °F 100% 29.74 in 3.0 mi East 3.5 mph - 0.09 in Rain Rain
10:54 AM 37.9 °F 35.5 °F 37.9 °F 100% 29.77 in 4.0 mi East 3.5 mph - 0.10 in Rain Light Rain
11:54 AM 37.9 °F 33.5 °F 37.9 °F 100% 29.68 in 6.0 mi East 5.8 mph - 0.06 in Rain Light Rain
12:52 PM 37.4 °F 34.9 °F 37.4 °F 100% 29.59 in 2.5 mi East 3.5 mph - 0.03 in Rain Light Rain
12:54 PM 37.9 °F 34.4 °F 37.9 °F 100% 29.63 in 1.8 mi East 4.6 mph - 0.03 in Rain Light Rain
1:28 PM 37.9 °F - 37.9 °F 100% 29.58 in 3.0 mi Calm Calm - 0.02 in Rain Light Rain
1:46 PM 37.9 °F - 37.9 °F 100% 29.58 in 2.5 mi Calm Calm - 0.04 in Rain Light Rain
1:54 PM 37.9 °F 35.5 °F 37.9 °F 100% 29.63 in 3.0 mi NNW 3.5 mph - 0.05 in Rain Light Rain
2:34 PM 37.9 °F 33.5 °F 37.9 °F 100% 29.59 in 2.0 mi NW 5.8 mph - 0.06 in Rain Rain
2:52 PM 37.4 °F 32.8 °F 37.4 °F 100% 29.59 in 0.8 mi NNW 5.8 mph - 0.08 in Rain Light Rain
2:54 PM 37.9 °F 33.5 °F 37.0 °F 97% 29.62 in 0.8 mi NNW 5.8 mph - 0.08 in Rain Light Rain
3:23 PM 37.9 °F 33.5 °F 37.0 °F 97% 29.58 in 1.5 mi NNW 5.8 mph - 0.02 in Rain Light Rain
3:30 PM 37.9 °F 32.7 °F 37.0 °F 97% 29.59 in 3.0 mi NNW 6.9 mph - 0.02 in Rain Light Rain
3:54 PM 37.0 °F 29.3 °F 36.0 °F 96% 29.64 in 2.5 mi NW 11.5 mph - 0.03 in Rain Light Rain
3:57 PM 37.0 °F 29.3 °F 37.0 °F 100% 29.60 in 0.8 mi WNW 11.5 mph - 0.00 in Rain Light Rain
4:12 PM 37.0 °F 27.7 °F 36.0 °F 96% 29.61 in 0.8 mi WNW 16.1 mph - 0.01 in Rain Light Rain
4:17 PM 37.0 °F 29.3 °F 36.0 °F 96% 29.61 in 2.0 mi WNW 11.5 mph 21.9 mph 0.01 in Rain Light Rain
4:20 PM 37.0 °F 28.5 °F 36.0 °F 96% 29.61 in 6.0 mi WNW 13.8 mph 21.9 mph 0.01 in Rain Light Rain
4:54 PM 35.1 °F 27.4 °F 34.0 °F 96% 29.68 in 10.0 mi NW 10.4 mph - 0.01 in Rain Light Rain
5:14 PM 35.1 °F 27.9 °F 34.0 °F 96% 29.66 in 2.0 mi WNW 9.2 mph - 0.00 in Rain Light Rain
5:19 PM 35.1 °F 27.4 °F 34.0 °F 96% 29.66 in 0.8 mi WNW 10.4 mph - 0.01 in Rain Light Rain
5:34 PM 35.1 °F 26.4 °F 34.0 °F 96% 29.67 in 2.5 mi WNW 12.7 mph 18.4 mph 0.01 in Rain Light Rain
5:41 PM 35.1 °F 27.4 °F 34.0 °F 96% 29.67 in 8.0 mi WNW 10.4 mph - 0.01 in Rain Light Rain
5:54 PM 34.0 °F 26.0 °F 34.0 °F 100% 29.73 in 2.5 mi WNW 10.4 mph - 0.01 in Rain Light Rain
6:03 PM 34.0 °F 25.5 °F 34.0 °F 100% 29.68 in 4.0 mi WNW 11.5 mph - 0.00 in   Overcast
6:07 PM 34.0 °F 25.5 °F 34.0 °F 100% 29.68 in 1.8 mi WNW 11.5 mph - 0.00 in   Overcast
6:17 PM 34.0 °F 26.0 °F 34.0 °F 100% 29.69 in 0.5 mi WNW 10.4 mph - 0.00 in Fog Fog
6:54 PM 35.1 °F 28.6 °F 35.1 °F 100% 29.75 in 0.5 mi West 8.1 mph - 0.00 in Fog Fog
7:03 PM 35.1 °F 27.9 °F 35.1 °F 100% 29.70 in 0.2 mi West 9.2 mph - N/A Fog Fog
7:54 PM 35.1 °F 25.9 °F 35.1 °F 100% 29.76 in 0.2 mi West 13.8 mph - N/A Fog Fog
8:52 PM 37.4 °F 27.8 °F 35.6 °F 93% 29.72 in 1.0 mi West 17.3 mph 23.0 mph 0.00 in Rain Light Rain
8:54 PM 37.0 °F 26.4 °F 36.0 °F 96% 29.77 in 1.8 mi West 20.7 mph 31.1 mph 0.00 in Rain Light Rain
8:57 PM 37.0 °F 27.7 °F 36.0 °F 96% 29.72 in 3.0 mi West 16.1 mph 31.1 mph 0.00 in Rain Light Rain
9:07 PM 37.0 °F 27.0 °F 37.0 °F 100% 29.72 in 1.8 mi West 18.4 mph 28.8 mph 0.00 in Rain Light Rain
9:37 PM 37.0 °F 26.7 °F 37.0 °F 100% 29.73 in 3.0 mi West 19.6 mph 28.8 mph 0.01 in   Overcast
9:54 PM 37.0 °F 27.4 °F 37.0 °F 100% 29.78 in 3.0 mi West 17.3 mph 25.3 mph 0.02 in Rain Light Rain
10:14 PM 37.0 °F 26.4 °F 36.0 °F 96% 29.73 in 6.0 mi West 20.7 mph 40.3 mph 0.01 in Rain Light Rain
10:29 PM 37.0 °F 27.7 °F 36.0 °F 96% 29.73 in 7.0 mi West 16.1 mph 29.9 mph 0.01 in Rain Light Rain
10:46 PM 36.0 °F 26.3 °F 36.0 °F 100% 29.73 in 5.0 mi West 16.1 mph 29.9 mph 0.02 in Rain Light Rain
10:54 PM 36.0 °F 26.0 °F 36.0 °F 100% 29.78 in 4.0 mi West 17.3 mph 27.6 mph 0.02 in Rain Light Rain
11:30 PM 35.1 °F 24.5 °F 34.0 °F 96% 29.74 in 6.0 mi West 18.4 mph 29.9 mph 0.01 in Rain Light Rain
11:54 PM 35.1 °F 25.2 °F 34.0 °F 96% 29.81 in 4.0 mi West 16.1 mph 23.0 mph 0.02 in Rain Light Rain